Regional Weather Roundup
Issued by NWS

Home | Current Version | Previous Version | Text Only | Print | Product List | Glossary On
Versions: 1 2 3 4 5 6 7 8 9 10 11 12 13 14 15 16 17 18 19 20 21 22 23 24 25 26 27 28 29 30 31 32 33 34 35 36 37 38 39 40 41 42 43 44 45 46 47 48 49 50
000
ASUS45 KABQ 021310
RWRNM
NEW MEXICO REGIONAL WEATHER ROUNDUP
NATIONAL WEATHER SERVICE ALBUQUERQUE NM
700 AM MDT WED SEP 02 2015

NOTE: "FAIR" MEANS FEW OR NO CLOUDS BELOW 12,000 FEET AGL WITH NO
       SIGNIFICANT WEATHER OR OBSTRUCTIONS TO VISION.

      THIS PRODUCT IS RELEASED AS TWO VERSIONS.  ONE VERSION NEAR
      THE TOP OF THE HOUR CONTAINING PRELIMINARY DATA FROM ALBUQUERQUE
      AND OTHER STATIONS.  A FINAL VERSION WITH ADDITIONAL DATA IS
      ISSUED ABOUT 10 MINUTES AFTER THE HOUR.

NMZ501-503-504-510>518-021400-
NORTHWEST PLATEAU/NORTHCENTRAL MOUNTAINS

CITY           SKY/WX    TMP DP  RH WIND       PRES   REMARKS
FARMINGTON     MOCLDY    61  48  62 E7        30.20R
LOS ALAMOS     MOCLDY    63  44  50 CALM      30.33R
SANTA FE       PTCLDY    56  46  69 CALM      30.26R
TAOS           PTCLDY    48  36  61 N7        30.35R
ANGEL FIRE     FAIR      40  39  95 CALM      30.42R

$$
NMZ402-403-502-505>509-021400-
WESTCENTRAL MOUNTAINS/SOUTHWEST MOUNTAINS

CITY           SKY/WX    TMP DP  RH WIND       PRES   REMARKS
GALLUP         PTCLDY    52  47  83 NE3       30.30R
GRANTS         PTCLDY    50  48  93 CALM      30.32R

$$
NMZ407-409-411-412-021400-
SOUTHERN DESERTS

CITY           SKY/WX    TMP DP  RH WIND       PRES   REMARKS
DEMING         CLOUDY    68  54  60 S7        30.14R
LAS CRUCES     PTCLDY    65  48  54 SW3       30.15R
HOLLOMAN AFB   PTCLDY    67  46  47 NE5       30.11R
T OR C         PTCLDY    69  47  45 NW8       30.17R

$$
NMZ519>523-021400-
CENTRAL VALLEYS/CENTRAL HIGHLANDS

CITY           SKY/WX    TMP DP  RH WIND       PRES   REMARKS
ALBUQUERQUE    PTCLDY    69  45  41 W3        30.21R
DOUBLE EAGLE   MOCLDY    63  46  55 N6        30.25R
MORIARTY ARPT  FAIR      53  46  76 N3        30.27R
CLINES CORNERS PTCLDY    59  45  59 W10       30.30R
BELEN          NOT AVBL
SOCORRO        FAIR      65  50  58 W3        30.18R

$$
NMZ524>526-539-540-021400-
SOUTHCENTRAL MOUNTAINS

CITY           SKY/WX    TMP DP  RH WIND       PRES   REMARKS
RUIDOSO        NOT AVBL

$$
NMZ527>531-021400-
NORTHEAST HIGHLANDS/NORTHEAST PLAINS

CITY           SKY/WX    TMP DP  RH WIND       PRES   REMARKS
LAS VEGAS      CLEAR     55  46  71 S3        30.28R
RATON          CLEAR     54  49  83 N6        30.23R
CLAYTON        CLEAR     65  53  65 W13       30.13R

$$
NMZ532>537-021400-
EASTCENTRAL PLAINS

CITY           SKY/WX    TMP DP  RH WIND       PRES   REMARKS
TUCUMCARI      PTCLDY    71  50  47 SW6       30.09R
CANNON AFB     PTCLDY    62  51  67 SW5       30.14R
CLOVIS AIRPORT PTCLDY    61  50  67 SW6       30.15R

$$
NMZ028-029-538-021400-
SOUTHEAST PLAINS

CITY           SKY/WX    TMP DP  RH WIND       PRES   REMARKS
ROSWELL        MOCLDY    65  51  60 CALM      30.10R
ARTESIA        PTCLDY    66  52  59 CALM      30.11R
CARLSBAD       CLEAR     64  49  57 CALM      30.08


$$


USA.gov is the U.S. government's official web portal to all federal, state and local government web resources and services.